owner,sensor,date,latitude,longitude,vertical_datum,wind_speed,wind_to_direction,wind_speed_of_gust,qcFlag 
DISL,ioos:station:DISL:CATA:1,2013-02-01T00:00:00Z,30.3085,-88.1395,0.0,5.55,239.7,-9999.0,'1111122,1111122,1111122' 
DISL,ioos:station:DISL:CATA:1,2013-02-01T00:30:00Z,30.3085,-88.1395,0.0,5.67,249.5,-9999.0,'1111122,1111122,1111122' 
DISL,ioos:station:DISL:CATA:1,2013-02-01T01:00:00Z,30.3085,-88.1395,0.0,6.23,244.3,-9999.0,'1111122,1111122,1111122' 
DISL,ioos:station:DISL:CATA:1,2013-02-01T01:30:00Z,30.3085,-88.1395,0.0,5.83,250.9,-9999.0,'1111122,1111122,1111122' 
DISL,ioos:station:DISL:CATA:1,2013-02-01T02:00:00Z,30.3085,-88.1395,0.0,7.11,248.3,-9999.0,'1111122,1111122,1111122' 
DISL,ioos:station:DISL:CATA:1,2013-02-01T02:30:00Z,30.3085,-88.1395,0.0,7.25,253.8,-9999.0,'1111122,1111122,1111122' 
DISL,ioos:station:DISL:CATA:1,2013-02-01T03:00:00Z,30.3085,-88.1395,0.0,7.13,248.9,-9999.0,'1111122,1111122,1111122' 
DISL,ioos:station:DISL:CATA:1,2013-02-01T03:30:00Z,30.3085,-88.1395,0.0,7.05,252.3,-9999.0,'1111122,1111122,1111122' 
DISL,ioos:station:DISL:CATA:1,2013-02-01T04:00:00Z,30.3085,-88.1395,0.0,8.05,256.3,-9999.0,'1111122,1111122,1111122' 
DISL,ioos:station:DISL:CATA:1,2013-02-01T04:30:00Z,30.3085,-88.1395,0.0,8.44,253.2,-9999.0,'1111122,1111122,1111122' 
DISL,ioos:station:DISL:CATA:1,2013-02-01T05:00:00Z,30.3085,-88.1395,0.0,7.95,263.5,-9999.0,'1111122,1111122,1111122' 
DISL,ioos:station:DISL:CATA:1,2013-02-01T05:30:00Z,30.3085,-88.1395,0.0,9.32,265.9,-9999.0,'1111122,1111122,1111122' 
DISL,ioos:station:DISL:CATA:1,2013-02-01T06:00:00Z,30.3085,-88.1395,0.0,9.07,271.2,-9999.0,'1111122,1111122,1111122' 
DISL,ioos:station:DISL:CATA:1,2013-02-01T06:30:00Z,30.3085,-88.1395,0.0,8.9,266.4,-9999.0,'1111122,1111122,1111122' 
DISL,ioos:station:DISL:CATA:1,2013-02-01T07:00:00Z,30.3085,-88.1395,0.0,7.41,297.7,-9999.0,'1111122,1111122,1111122' 
DISL,ioos:station:DISL:CATA:1,2013-02-01T07:30:00Z,30.3085,-88.1395,0.0,7.55,299.3,-9999.0,'1111122,1111122,1111122' 
DISL,ioos:station:DISL:CATA:1,2013-02-01T08:00:00Z,30.3085,-88.1395,0.0,7.29,300.2,-9999.0,'1111122,1111122,1111122' 
DISL,ioos:station:DISL:CATA:1,2013-02-01T08:30:00Z,30.3085,-88.1395,0.0,9.21,297.1,-9999.0,'1111122,1111122,1111122' 
DISL,ioos:station:DISL:CATA:1,2013-02-01T09:00:00Z,30.3085,-88.1395,0.0,8.08,298.0,-9999.0,'1111122,1111122,1111122' 
DISL,ioos:station:DISL:CATA:1,2013-02-01T09:30:00Z,30.3085,-88.1395,0.0,6.55,303.4,-9999.0,'1111122,1111122,1111122' 
DISL,ioos:station:DISL:CATA:1,2013-02-01T10:00:00Z,30.3085,-88.1395,0.0,5.51,308.5,-9999.0,'1111122,1111122,1111122' 
DISL,ioos:station:DISL:CATA:1,2013-02-01T10:30:00Z,30.3085,-88.1395,0.0,4.72,309.8,-9999.0,'1111122,1111122,1111122' 
DISL,ioos:station:DISL:CATA:1,2013-02-01T11:00:00Z,30.3085,-88.1395,0.0,4.52,310.2,-9999.0,'1111122,1111122,1111122' 
DISL,ioos:station:DISL:CATA:1,2013-02-01T11:30:00Z,30.3085,-88.1395,0.0,5.28,301.3,-9999.0,'1111122,1111122,1111122' 
DISL,ioos:station:DISL:CATA:1,2013-02-01T12:00:00Z,30.3085,-88.1395,0.0,4.98,307.0,-9999.0,'1111122,1111122,1111122' 
DISL,ioos:station:DISL:CATA:1,2013-02-01T12:30:00Z,30.3085,-88.1395,0.0,5.57,310.3,-9999.0,'1111122,1111122,1111122' 
DISL,ioos:station:DISL:CATA:1,2013-02-01T13:00:00Z,30.3085,-88.1395,0.0,5.21,310.2,-9999.0,'1111122,1111122,1111122' 
DISL,ioos:station:DISL:CATA:1,2013-02-01T13:30:00Z,30.3085,-88.1395,0.0,5.15,316.4,-9999.0,'1111122,1111122,1111122' 
DISL,ioos:station:DISL:CATA:1,2013-02-01T14:00:00Z,30.3085,-88.1395,0.0,3.43,331.8,-9999.0,'1111122,1111122,1111122' 
DISL,ioos:station:DISL:CATA:1,2013-02-01T14:30:00Z,30.3085,-88.1395,0.0,3.07,338.9,-9999.0,'1111122,1111122,1111122' 
DISL,ioos:station:DISL:CATA:1,2013-02-01T15:00:00Z,30.3085,-88.1395,0.0,4.58,353.6,-9999.0,'1111122,1111122,1111122' 
DISL,ioos:station:DISL:CATA:1,2013-02-01T15:30:00Z,30.3085,-88.1395,0.0,4.3,8.17,-9999.0,'1111122,1111122,1111122' 
DISL,ioos:station:DISL:CATA:1,2013-02-01T16:00:00Z,30.3085,-88.1395,0.0,4.61,27.03,-9999.0,'1111122,1111122,1111122' 
DISL,ioos:station:DISL:CATA:1,2013-02-01T16:30:00Z,30.3085,-88.1395,0.0,5.5,39.64,-9999.0,'1111122,1111122,1111122' 
DISL,ioos:station:DISL:CATA:1,2013-02-01T17:00:00Z,30.3085,-88.1395,0.0,5.32,37.81,-9999.0,'1111122,1111122,1111122' 
DISL,ioos:station:DISL:CATA:1,2013-02-01T17:30:00Z,30.3085,-88.1395,0.0,6.33,37.81,-9999.0,'1111122,1111122,1111122' 
DISL,ioos:station:DISL:CATA:1,2013-02-01T18:00:00Z,30.3085,-88.1395,0.0,6.57,40.83,-9999.0,'1111122,1111122,1111122' 
DISL,ioos:station:DISL:CATA:1,2013-02-01T18:30:00Z,30.3085,-88.1395,0.0,7.49,37.86,-9999.0,'1111122,1111122,1111122' 
DISL,ioos:station:DISL:CATA:1,2013-02-01T19:00:00Z,30.3085,-88.1395,0.0,5.85,45.05,-9999.0,'1111122,1111122,1111122' 
DISL,ioos:station:DISL:CATA:1,2013-02-01T19:30:00Z,30.3085,-88.1395,0.0,5.94,47.92,-9999.0,'1111122,1111122,1111122' 
DISL,ioos:station:DISL:CATA:1,2013-02-01T20:00:00Z,30.3085,-88.1395,0.0,6.26,48.44,-9999.0,'1111122,1111122,1111122' 
DISL,ioos:station:DISL:CATA:1,2013-02-01T20:30:00Z,30.3085,-88.1395,0.0,6.91,44.41,-9999.0,'1111122,1111122,1111122' 
DISL,ioos:station:DISL:CATA:1,2013-02-01T21:00:00Z,30.3085,-88.1395,0.0,6.07,47.77,-9999.0,'1111122,1111122,1111122' 
DISL,ioos:station:DISL:CATA:1,2013-02-01T21:30:00Z,30.3085,-88.1395,0.0,5.5,45.66,-9999.0,'1111122,1111122,1111122' 
DISL,ioos:station:DISL:CATA:1,2013-02-01T22:00:00Z,30.3085,-88.1395,0.0,4.85,48.64,-9999.0,'1111122,1111122,1111122' 
DISL,ioos:station:DISL:CATA:1,2013-02-01T22:30:00Z,30.3085,-88.1395,0.0,4.09,51.16,-9999.0,'1111122,1111122,1111122' 
DISL,ioos:station:DISL:CATA:1,2013-02-01T23:00:00Z,30.3085,-88.1395,0.0,5.1,42.86,-9999.0,'1111122,1111122,1111122' 
DISL,ioos:station:DISL:CATA:1,2013-02-01T23:30:00Z,30.3085,-88.1395,0.0,4.84,40.66,-9999.0,'1111122,1111122,1111122' 
DISL,ioos:station:DISL:CATA:1,2013-02-02T00:00:00Z,30.3085,-88.1395,0.0,5.51,42.53,-9999.0,'1111122,1111122,1111122' 
DISL,ioos:station:DISL:CATA:1,2013-02-02T00:30:00Z,30.3085,-88.1395,0.0,4.9,45.38,-9999.0,'1111122,1111122,1111122' 
DISL,ioos:station:DISL:CATA:1,2013-02-02T01:00:00Z,30.3085,-88.1395,0.0,5.36,37.99,-9999.0,'1111122,1111122,1111122' 
DISL,ioos:station:DISL:CATA:1,2013-02-02T01:30:00Z,30.3085,-88.1395,0.0,3.91,28.56,-9999.0,'1111122,1111122,1111122' 
DISL,ioos:station:DISL:CATA:1,2013-02-02T02:00:00Z,30.3085,-88.1395,0.0,5.39,41.49,-9999.0,'1111122,1111122,1111122' 
DISL,ioos:station:DISL:CATA:1,2013-02-02T02:30:00Z,30.3085,-88.1395,0.0,6.31,40.39,-9999.0,'1111122,1111122,1111122' 
DISL,ioos:station:DISL:CATA:1,2013-02-02T03:00:00Z,30.3085,-88.1395,0.0,5.34,50.95,-9999.0,'1111122,1111122,1111122' 
DISL,ioos:station:DISL:CATA:1,2013-02-02T03:30:00Z,30.3085,-88.1395,0.0,5.2,50.48,-9999.0,'1111122,1111122,1111122' 
DISL,ioos:station:DISL:CATA:1,2013-02-02T04:00:00Z,30.3085,-88.1395,0.0,4.92,49.56,-9999.0,'1111122,1111122,1111122' 
DISL,ioos:station:DISL:CATA:1,2013-02-02T04:30:00Z,30.3085,-88.1395,0.0,5.41,43.9,-9999.0,'1111122,1111122,1111122' 
DISL,ioos:station:DISL:CATA:1,2013-02-02T05:00:00Z,30.3085,-88.1395,0.0,5.79,50.92,-9999.0,'1111122,1111122,1111122' 
DISL,ioos:station:DISL:CATA:1,2013-02-02T05:30:00Z,30.3085,-88.1395,0.0,6.54,54.47,-9999.0,'1111122,1111122,1111122' 
DISL,ioos:station:DISL:CATA:1,2013-02-02T06:00:00Z,30.3085,-88.1395,0.0,6.56,52.61,-9999.0,'1111122,1111122,1111122' 
DISL,ioos:station:DISL:CATA:1,2013-02-02T06:30:00Z,30.3085,-88.1395,0.0,6.27,57.01,-9999.0,'1111122,1111122,1111122' 
DISL,ioos:station:DISL:CATA:1,2013-02-02T07:00:00Z,30.3085,-88.1395,0.0,5.96,58.1,-9999.0,'1111122,1111122,1111122' 
DISL,ioos:station:DISL:CATA:1,2013-02-02T07:30:00Z,30.3085,-88.1395,0.0,6.03,54.01,-9999.0,'1111122,1111122,1111122' 
DISL,ioos:station:DISL:CATA:1,2013-02-02T08:00:00Z,30.3085,-88.1395,0.0,5.86,62.27,-9999.0,'1111122,1111122,1111122' 
DISL,ioos:station:DISL:CATA:1,2013-02-02T08:30:00Z,30.3085,-88.1395,0.0,5.67,63.67,-9999.0,'1111122,1111122,1111122' 
DISL,ioos:station:DISL:CATA:1,2013-02-02T09:00:00Z,30.3085,-88.1395,0.0,5.66,59.37,-9999.0,'1111122,1111122,1111122' 
DISL,ioos:station:DISL:CATA:1,2013-02-02T09:30:00Z,30.3085,-88.1395,0.0,6.07,65.23,-9999.0,'1111122,1111122,1111122' 
DISL,ioos:station:DISL:CATA:1,2013-02-02T10:00:00Z,30.3085,-88.1395,0.0,6.01,63.25,-9999.0,'1111122,1111122,1111122' 
DISL,ioos:station:DISL:CATA:1,2013-02-02T10:30:00Z,30.3085,-88.1395,0.0,5.92,59.07,-9999.0,'1111122,1111122,1111122' 
DISL,ioos:station:DISL:CATA:1,2013-02-02T11:00:00Z,30.3085,-88.1395,0.0,5.86,64.28,-9999.0,'1111122,1111122,1111122' 
DISL,ioos:station:DISL:CATA:1,2013-02-02T11:30:00Z,30.3085,-88.1395,0.0,5.45,66.73,-9999.0,'1111122,1111122,1111122' 
DISL,ioos:station:DISL:CATA:1,2013-02-02T12:00:00Z,30.3085,-88.1395,0.0,4.35,60.36,-9999.0,'1111122,1111122,1111122' 
DISL,ioos:station:DISL:CATA:1,2013-02-02T12:30:00Z,30.3085,-88.1395,0.0,4.42,64.0,-9999.0,'1111122,1111122,1111122' 
DISL,ioos:station:DISL:CATA:1,2013-02-02T13:00:00Z,30.3085,-88.1395,0.0,3.94,60.38,-9999.0,'1111122,1111122,1111122' 
DISL,ioos:station:DISL:CATA:1,2013-02-02T13:30:00Z,30.3085,-88.1395,0.0,4.47,74.97,-9999.0,'1111122,1111122,1111122' 
DISL,ioos:station:DISL:CATA:1,2013-02-02T14:00:00Z,30.3085,-88.1395,0.0,4.75,83.4,-9999.0,'1111122,1111122,1111122' 
DISL,ioos:station:DISL:CATA:1,2013-02-02T14:30:00Z,30.3085,-88.1395,0.0,4.86,87.5,-9999.0,'1111122,1111122,1111122' 
DISL,ioos:station:DISL:CATA:1,2013-02-02T15:00:00Z,30.3085,-88.1395,0.0,4.69,88.6,-9999.0,'1111122,1111122,1111122' 
DISL,ioos:station:DISL:CATA:1,2013-02-02T15:30:00Z,30.3085,-88.1395,0.0,4.39,96.5,-9999.0,'1111122,1111122,1111122' 
DISL,ioos:station:DISL:CATA:1,2013-02-02T16:00:00Z,30.3085,-88.1395,0.0,4.32,100.1,-9999.0,'1111122,1111122,1111122' 
DISL,ioos:station:DISL:CATA:1,2013-02-02T16:30:00Z,30.3085,-88.1395,0.0,3.22,102.8,-9999.0,'1111122,1111122,1111122' 
DISL,ioos:station:DISL:CATA:1,2013-02-02T17:00:00Z,30.3085,-88.1395,0.0,3.11,100.8,-9999.0,'1111122,1111122,1111122' 
DISL,ioos:station:DISL:CATA:1,2013-02-02T17:30:00Z,30.3085,-88.1395,0.0,3.71,114.8,-9999.0,'1111122,1111122,1111122' 
DISL,ioos:station:DISL:CATA:1,2013-02-02T18:00:00Z,30.3085,-88.1395,0.0,6.03,137.6,-9999.0,'1111122,1111122,1111122' 
DISL,ioos:station:DISL:CATA:1,2013-02-02T18:30:00Z,30.3085,-88.1395,0.0,5.2,134.4,-9999.0,'1111122,1111122,1111122' 
DISL,ioos:station:DISL:CATA:1,2013-02-02T19:00:00Z,30.3085,-88.1395,0.0,5.01,142.4,-9999.0,'1111122,1111122,1111122' 
DISL,ioos:station:DISL:CATA:1,2013-02-02T19:30:00Z,30.3085,-88.1395,0.0,4.73,135.5,-9999.0,'1111122,1111122,1111122' 
DISL,ioos:station:DISL:CATA:1,2013-02-02T20:00:00Z,30.3085,-88.1395,0.0,4.65,138.3,-9999.0,'1111122,1111122,1111122' 
DISL,ioos:station:DISL:CATA:1,2013-02-02T20:30:00Z,30.3085,-88.1395,0.0,4.64,140.1,-9999.0,'1111122,1111122,1111122' 
DISL,ioos:station:DISL:CATA:1,2013-02-02T21:00:00Z,30.3085,-88.1395,0.0,4.13,152.3,-9999.0,'1111122,1111122,1111122' 
DISL,ioos:station:DISL:CATA:1,2013-02-02T21:30:00Z,30.3085,-88.1395,0.0,5.16,160.1,-9999.0,'1111122,1111122,1111122' 
DISL,ioos:station:DISL:CATA:1,2013-02-02T22:00:00Z,30.3085,-88.1395,0.0,4.77,162.5,-9999.0,'1111122,1111122,1111122' 
DISL,ioos:station:DISL:CATA:1,2013-02-02T22:30:00Z,30.3085,-88.1395,0.0,5.05,164.5,-9999.0,'1111122,1111122,1111122' 
DISL,ioos:station:DISL:CATA:1,2013-02-02T23:00:00Z,30.3085,-88.1395,0.0,4.01,166.7,-9999.0,'1111122,1111122,1111122' 
DISL,ioos:station:DISL:CATA:1,2013-02-02T23:30:00Z,30.3085,-88.1395,0.0,2.33,179.4,-9999.0,'1111122,1111122,1111122' 
DISL,ioos:station:DISL:CATA:1,2013-02-03T00:00:00Z,30.3085,-88.1395,0.0,2.07,203.0,-9999.0,'1111122,1111122,1111122' 
DISL,ioos:station:DISL:CATA:1,2013-02-03T00:30:00Z,30.3085,-88.1395,0.0,0.77,204.9,-9999.0,'1111122,1111122,1111122' 
DISL,ioos:station:DISL:CATA:1,2013-02-03T01:00:00Z,30.3085,-88.1395,0.0,0.83,175.4,-9999.0,'1111122,1111122,1111122' 
DISL,ioos:station:DISL:CATA:1,2013-02-03T01:30:00Z,30.3085,-88.1395,0.0,1.05,117.6,-9999.0,'1111122,1111122,1111122' 
DISL,ioos:station:DISL:CATA:1,2013-02-03T02:00:00Z,30.3085,-88.1395,0.0,0.71,92.5,-9999.0,'1111122,1111122,1111122' 
DISL,ioos:station:DISL:CATA:1,2013-02-03T02:30:00Z,30.3085,-88.1395,0.0,1.6,141.4,-9999.0,'1111122,1111122,1111122' 
DISL,ioos:station:DISL:CATA:1,2013-02-03T03:00:00Z,30.3085,-88.1395,0.0,2.41,181.0,-9999.0,'1111122,1111122,1111122' 
DISL,ioos:station:DISL:CATA:1,2013-02-03T03:30:00Z,30.3085,-88.1395,0.0,2.35,204.6,-9999.0,'1111122,1111122,1111122' 
DISL,ioos:station:DISL:CATA:1,2013-02-03T04:00:00Z,30.3085,-88.1395,0.0,2.94,221.0,-9999.0,'1111122,1111122,1111122' 
DISL,ioos:station:DISL:CATA:1,2013-02-03T04:30:00Z,30.3085,-88.1395,0.0,3.51,226.5,-9999.0,'1111122,1111122,1111122' 
DISL,ioos:station:DISL:CATA:1,2013-02-03T05:00:00Z,30.3085,-88.1395,0.0,4.8,233.1,-9999.0,'1111122,1111122,1111122' 
DISL,ioos:station:DISL:CATA:1,2013-02-03T05:30:00Z,30.3085,-88.1395,0.0,3.82,251.7,-9999.0,'1111122,1111122,1111122' 
DISL,ioos:station:DISL:CATA:1,2013-02-03T06:00:00Z,30.3085,-88.1395,0.0,4.04,244.7,-9999.0,'1111122,1111122,1111122' 
DISL,ioos:station:DISL:CATA:1,2013-02-03T06:30:00Z,30.3085,-88.1395,0.0,4.62,240.3,-9999.0,'1111122,1111122,1111122' 
DISL,ioos:station:DISL:CATA:1,2013-02-03T07:00:00Z,30.3085,-88.1395,0.0,4.82,255.0,-9999.0,'1111122,1111122,1111122' 
DISL,ioos:station:DISL:CATA:1,2013-02-03T07:30:00Z,30.3085,-88.1395,0.0,4.42,275.1,-9999.0,'1111122,1111122,1111122' 
DISL,ioos:station:DISL:CATA:1,2013-02-03T08:00:00Z,30.3085,-88.1395,0.0,6.2,328.5,-9999.0,'1111122,1111122,1111122' 
DISL,ioos:station:DISL:CATA:1,2013-02-03T08:30:00Z,30.3085,-88.1395,0.0,4.54,327.5,-9999.0,'1111122,1111122,1111122' 
DISL,ioos:station:DISL:CATA:1,2013-02-03T09:00:00Z,30.3085,-88.1395,0.0,2.23,322.3,-9999.0,'1111122,1111122,1111122' 
DISL,ioos:station:DISL:CATA:1,2013-02-03T09:30:00Z,30.3085,-88.1395,0.0,2.73,332.4,-9999.0,'1111122,1111122,1111122' 
DISL,ioos:station:DISL:CATA:1,2013-02-03T10:00:00Z,30.3085,-88.1395,0.0,2.62,339.0,-9999.0,'1111122,1111122,1111122' 
DISL,ioos:station:DISL:CATA:1,2013-02-03T10:30:00Z,30.3085,-88.1395,0.0,2.6,17.18,-9999.0,'1111122,1111122,1111122' 
DISL,ioos:station:DISL:CATA:1,2013-02-03T11:00:00Z,30.3085,-88.1395,0.0,2.9,11.63,-9999.0,'1111122,1111122,1111122' 
DISL,ioos:station:DISL:CATA:1,2013-02-03T11:30:00Z,30.3085,-88.1395,0.0,2.12,18.17,-9999.0,'1111122,1111122,1111122' 
DISL,ioos:station:DISL:CATA:1,2013-02-03T12:00:00Z,30.3085,-88.1395,0.0,2.49,9.92,-9999.0,'1111122,1111122,1111122' 
DISL,ioos:station:DISL:CATA:1,2013-02-03T12:30:00Z,30.3085,-88.1395,0.0,1.86,0.794,-9999.0,'1111122,1111122,1111122' 
DISL,ioos:station:DISL:CATA:1,2013-02-03T13:00:00Z,30.3085,-88.1395,0.0,3.01,10.16,-9999.0,'1111122,1111122,1111122' 
DISL,ioos:station:DISL:CATA:1,2013-02-03T13:30:00Z,30.3085,-88.1395,0.0,2.63,359.4,-9999.0,'1111122,1111122,1111122' 
DISL,ioos:station:DISL:CATA:1,2013-02-03T14:00:00Z,30.3085,-88.1395,0.0,2.08,14.83,-9999.0,'1111122,1111122,1111122' 
DISL,ioos:station:DISL:CATA:1,2013-02-03T14:30:00Z,30.3085,-88.1395,0.0,2.22,31.56,-9999.0,'1111122,1111122,1111122' 
DISL,ioos:station:DISL:CATA:1,2013-02-03T15:00:00Z,30.3085,-88.1395,0.0,2.52,42.36,-9999.0,'1111122,1111122,1111122' 
DISL,ioos:station:DISL:CATA:1,2013-02-03T15:30:00Z,30.3085,-88.1395,0.0,2.83,47.49,-9999.0,'1111122,1111122,1111122' 
DISL,ioos:station:DISL:CATA:1,2013-02-03T16:00:00Z,30.3085,-88.1395,0.0,1.96,58.22,-9999.0,'1111122,1111122,1111122' 
DISL,ioos:station:DISL:CATA:1,2013-02-03T16:30:00Z,30.3085,-88.1395,0.0,1.73,86.6,-9999.0,'1111122,1111122,1111122' 
DISL,ioos:station:DISL:CATA:1,2013-02-03T17:00:00Z,30.3085,-88.1395,0.0,1.56,131.3,-9999.0,'1111122,1111122,1111122' 
DISL,ioos:station:DISL:CATA:1,2013-02-03T17:30:00Z,30.3085,-88.1395,0.0,1.82,162.0,-9999.0,'1111122,1111122,1111122' 
DISL,ioos:station:DISL:CATA:1,2013-02-03T18:00:00Z,30.3085,-88.1395,0.0,1.75,166.3,-9999.0,'1111122,1111122,1111122' 
DISL,ioos:station:DISL:CATA:1,2013-02-03T18:30:00Z,30.3085,-88.1395,0.0,2.63,186.4,-9999.0,'1111122,1111122,1111122' 
DISL,ioos:station:DISL:CATA:1,2013-02-03T19:00:00Z,30.3085,-88.1395,0.0,4.05,202.7,-9999.0,'1111122,1111122,1111122' 
DISL,ioos:station:DISL:CATA:1,2013-02-03T19:30:00Z,30.3085,-88.1395,0.0,4.08,192.3,-9999.0,'1111122,1111122,1111122' 
DISL,ioos:station:DISL:CATA:1,2013-02-03T20:00:00Z,30.3085,-88.1395,0.0,4.75,204.8,-9999.0,'1111122,1111122,1111122' 
DISL,ioos:station:DISL:CATA:1,2013-02-03T20:30:00Z,30.3085,-88.1395,0.0,5.41,219.1,-9999.0,'1111122,1111122,1111122' 
DISL,ioos:station:DISL:CATA:1,2013-02-03T21:00:00Z,30.3085,-88.1395,0.0,5.27,221.5,-9999.0,'1111122,1111122,1111122' 
DISL,ioos:station:DISL:CATA:1,2013-02-03T21:30:00Z,30.3085,-88.1395,0.0,5.64,225.5,-9999.0,'1111122,1111122,1111122' 
DISL,ioos:station:DISL:CATA:1,2013-02-03T22:00:00Z,30.3085,-88.1395,0.0,5.88,236.4,-9999.0,'1111122,1111122,1111122' 
DISL,ioos:station:DISL:CATA:1,2013-02-03T22:30:00Z,30.3085,-88.1395,0.0,5.96,241.8,-9999.0,'1111122,1111122,1111122' 
DISL,ioos:station:DISL:CATA:1,2013-02-03T23:00:00Z,30.3085,-88.1395,0.0,6.28,243.7,-9999.0,'1111122,1111122,1111122' 
DISL,ioos:station:DISL:CATA:1,2013-02-03T23:30:00Z,30.3085,-88.1395,0.0,5.04,238.5,-9999.0,'1111122,1111122,1111122' 
DISL,ioos:station:DISL:CATA:1,2013-02-04T00:00:00Z,30.3085,-88.1395,0.0,5.33,245.8,-9999.0,'1111122,1111122,1111122' 
DISL,ioos:station:DISL:CATA:1,2013-02-04T00:30:00Z,30.3085,-88.1395,0.0,5.86,259.2,-9999.0,'1111122,1111122,1111122' 
DISL,ioos:station:DISL:CATA:1,2013-02-04T01:00:00Z,30.3085,-88.1395,0.0,6.0,259.8,-9999.0,'1111122,1111122,1111122' 
DISL,ioos:station:DISL:CATA:1,2013-02-04T01:30:00Z,30.3085,-88.1395,0.0,4.8,250.1,-9999.0,'1111122,1111122,1111122' 
DISL,ioos:station:DISL:CATA:1,2013-02-04T02:00:00Z,30.3085,-88.1395,0.0,4.79,241.1,-9999.0,'1111122,1111122,1111122' 
DISL,ioos:station:DISL:CATA:1,2013-02-04T02:30:00Z,30.3085,-88.1395,0.0,4.71,261.2,-9999.0,'1111122,1111122,1111122' 
DISL,ioos:station:DISL:CATA:1,2013-02-04T03:00:00Z,30.3085,-88.1395,0.0,3.52,245.1,-9999.0,'1111122,1111122,1111122' 
DISL,ioos:station:DISL:CATA:1,2013-02-04T03:30:00Z,30.3085,-88.1395,0.0,4.06,244.5,-9999.0,'1111122,1111122,1111122' 
DISL,ioos:station:DISL:CATA:1,2013-02-04T04:00:00Z,30.3085,-88.1395,0.0,4.4,248.8,-9999.0,'1111122,1111122,1111122' 
DISL,ioos:station:DISL:CATA:1,2013-02-04T04:30:00Z,30.3085,-88.1395,0.0,4.33,252.1,-9999.0,'1111122,1111122,1111122' 
DISL,ioos:station:DISL:CATA:1,2013-02-04T05:00:00Z,30.3085,-88.1395,0.0,4.02,271.2,-9999.0,'1111122,1111122,1111122' 
DISL,ioos:station:DISL:CATA:1,2013-02-04T05:30:00Z,30.3085,-88.1395,0.0,3.68,275.1,-9999.0,'1111122,1111122,1111122' 
DISL,ioos:station:DISL:CATA:1,2013-02-04T06:00:00Z,30.3085,-88.1395,0.0,5.0,341.6,-9999.0,'1111122,1111122,1111122' 
DISL,ioos:station:DISL:CATA:1,2013-02-04T06:30:00Z,30.3085,-88.1395,0.0,3.98,321.1,-9999.0,'1111122,1111122,1111122' 
DISL,ioos:station:DISL:CATA:1,2013-02-04T07:00:00Z,30.3085,-88.1395,0.0,3.11,10.07,-9999.0,'1111122,1111122,1111122' 
DISL,ioos:station:DISL:CATA:1,2013-02-04T07:30:00Z,30.3085,-88.1395,0.0,3.39,17.77,-9999.0,'1111122,1111122,1111122' 
DISL,ioos:station:DISL:CATA:1,2013-02-04T08:00:00Z,30.3085,-88.1395,0.0,2.57,25.59,-9999.0,'1111122,1111122,1111122' 
DISL,ioos:station:DISL:CATA:1,2013-02-04T08:30:00Z,30.3085,-88.1395,0.0,5.94,44.42,-9999.0,'1111122,1111122,1111122' 
DISL,ioos:station:DISL:CATA:1,2013-02-04T09:00:00Z,30.3085,-88.1395,0.0,5.63,46.24,-9999.0,'1111122,1111122,1111122' 
DISL,ioos:station:DISL:CATA:1,2013-02-04T09:30:00Z,30.3085,-88.1395,0.0,5.55,59.22,-9999.0,'1111122,1111122,1111122' 
DISL,ioos:station:DISL:CATA:1,2013-02-04T10:00:00Z,30.3085,-88.1395,0.0,5.13,55.04,-9999.0,'1111122,1111122,1111122' 
DISL,ioos:station:DISL:CATA:1,2013-02-04T10:30:00Z,30.3085,-88.1395,0.0,4.8,55.77,-9999.0,'1111122,1111122,1111122' 
DISL,ioos:station:DISL:CATA:1,2013-02-04T11:00:00Z,30.3085,-88.1395,0.0,4.72,57.5,-9999.0,'1111122,1111122,1111122' 
DISL,ioos:station:DISL:CATA:1,2013-02-04T11:30:00Z,30.3085,-88.1395,0.0,5.18,63.02,-9999.0,'1111122,1111122,1111122' 
DISL,ioos:station:DISL:CATA:1,2013-02-04T12:00:00Z,30.3085,-88.1395,0.0,4.84,73.05,-9999.0,'1111122,1111122,1111122' 
DISL,ioos:station:DISL:CATA:1,2013-02-04T12:30:00Z,30.3085,-88.1395,0.0,4.1,77.68,-9999.0,'1111122,1111122,1111122' 
DISL,ioos:station:DISL:CATA:1,2013-02-04T13:00:00Z,30.3085,-88.1395,0.0,4.02,75.24,-9999.0,'1111122,1111122,1111122' 
DISL,ioos:station:DISL:CATA:1,2013-02-04T13:30:00Z,30.3085,-88.1395,0.0,4.38,85.6,-9999.0,'1111122,1111122,1111122' 
DISL,ioos:station:DISL:CATA:1,2013-02-04T14:00:00Z,30.3085,-88.1395,0.0,4.7,84.3,-9999.0,'1111122,1111122,1111122' 
DISL,ioos:station:DISL:CATA:1,2013-02-04T14:30:00Z,30.3085,-88.1395,0.0,3.79,90.5,-9999.0,'1111122,1111122,1111122' 
DISL,ioos:station:DISL:CATA:1,2013-02-04T15:00:00Z,30.3085,-88.1395,0.0,3.11,62.06,-9999.0,'1111122,1111122,1111122' 
DISL,ioos:station:DISL:CATA:1,2013-02-04T15:30:00Z,30.3085,-88.1395,0.0,3.08,77.87,-9999.0,'1111122,1111122,1111122' 
DISL,ioos:station:DISL:CATA:1,2013-02-04T16:00:00Z,30.3085,-88.1395,0.0,2.63,66.01,-9999.0,'1111122,1111122,1111122' 
DISL,ioos:station:DISL:CATA:1,2013-02-04T16:30:00Z,30.3085,-88.1395,0.0,3.03,68.64,-9999.0,'1111122,1111122,1111122' 
DISL,ioos:station:DISL:CATA:1,2013-02-04T17:00:00Z,30.3085,-88.1395,0.0,2.84,75.17,-9999.0,'1111122,1111122,1111122' 
DISL,ioos:station:DISL:CATA:1,2013-02-04T17:30:00Z,30.3085,-88.1395,0.0,2.69,71.17,-9999.0,'1111122,1111122,1111122' 
DISL,ioos:station:DISL:CATA:1,2013-02-04T18:00:00Z,30.3085,-88.1395,0.0,2.57,65.41,-9999.0,'1111122,1111122,1111122' 
DISL,ioos:station:DISL:CATA:1,2013-02-04T18:30:00Z,30.3085,-88.1395,0.0,2.64,70.95,-9999.0,'1111122,1111122,1111122' 
DISL,ioos:station:DISL:CATA:1,2013-02-04T19:00:00Z,30.3085,-88.1395,0.0,2.02,69.09,-9999.0,'1111122,1111122,1111122' 
DISL,ioos:station:DISL:CATA:1,2013-02-04T19:30:00Z,30.3085,-88.1395,0.0,2.03,69.32,-9999.0,'1111122,1111122,1111122' 
DISL,ioos:station:DISL:CATA:1,2013-02-04T20:00:00Z,30.3085,-88.1395,0.0,1.96,62.08,-9999.0,'1111122,1111122,1111122' 
DISL,ioos:station:DISL:CATA:1,2013-02-04T20:30:00Z,30.3085,-88.1395,0.0,2.04,66.76,-9999.0,'1111122,1111122,1111122' 
DISL,ioos:station:DISL:CATA:1,2013-02-04T21:00:00Z,30.3085,-88.1395,0.0,1.76,74.39,-9999.0,'1111122,1111122,1111122' 
DISL,ioos:station:DISL:CATA:1,2013-02-04T21:30:00Z,30.3085,-88.1395,0.0,2.31,67.55,-9999.0,'1111122,1111122,1111122' 
DISL,ioos:station:DISL:CATA:1,2013-02-04T22:00:00Z,30.3085,-88.1395,0.0,2.17,67.71,-9999.0,'1111122,1111122,1111122' 
DISL,ioos:station:DISL:CATA:1,2013-02-04T22:30:00Z,30.3085,-88.1395,0.0,2.41,81.3,-9999.0,'1111122,1111122,1111122' 
DISL,ioos:station:DISL:CATA:1,2013-02-04T23:00:00Z,30.3085,-88.1395,0.0,2.34,92.0,-9999.0,'1111122,1111122,1111122' 
DISL,ioos:station:DISL:CATA:1,2013-02-04T23:30:00Z,30.3085,-88.1395,0.0,1.56,70.27,-9999.0,'1111122,1111122,1111122' 
DISL,ioos:station:DISL:CATA:1,2013-02-05T00:00:00Z,30.3085,-88.1395,0.0,1.52,69.36,-9999.0,'1111122,1111122,1111122' 
DISL,ioos:station:DISL:CATA:1,2013-02-05T00:30:00Z,30.3085,-88.1395,0.0,2.94,110.9,-9999.0,'1111122,1111122,1111122' 
DISL,ioos:station:DISL:CATA:1,2013-02-05T01:00:00Z,30.3085,-88.1395,0.0,2.62,120.0,-9999.0,'1111122,1111122,1111122' 
DISL,ioos:station:DISL:CATA:1,2013-02-05T01:30:00Z,30.3085,-88.1395,0.0,3.59,121.6,-9999.0,'1111122,1111122,1111122' 
DISL,ioos:station:DISL:CATA:1,2013-02-05T02:00:00Z,30.3085,-88.1395,0.0,3.38,122.5,-9999.0,'1111122,1111122,1111122' 
DISL,ioos:station:DISL:CATA:1,2013-02-05T02:30:00Z,30.3085,-88.1395,0.0,3.31,124.9,-9999.0,'1111122,1111122,1111122' 
DISL,ioos:station:DISL:CATA:1,2013-02-05T03:00:00Z,30.3085,-88.1395,0.0,2.72,129.9,-9999.0,'1111122,1111122,1111122' 
DISL,ioos:station:DISL:CATA:1,2013-02-05T03:30:00Z,30.3085,-88.1395,0.0,3.94,139.3,-9999.0,'1111122,1111122,1111122' 
DISL,ioos:station:DISL:CATA:1,2013-02-05T04:00:00Z,30.3085,-88.1395,0.0,4.57,141.2,-9999.0,'1111122,1111122,1111122' 
DISL,ioos:station:DISL:CATA:1,2013-02-05T04:30:00Z,30.3085,-88.1395,0.0,4.0,140.1,-9999.0,'1111122,1111122,1111122' 